When you browse on this site, cookies collect data to enhance your experience and personalize the content and advertising you see.
Visit our Privacy Policy to learn more. By continuing to use the site, you agree to this use of cookies and data.
  • In Switzerland
  • List of Countries
  • For 7 days
  • Water Temperature
  • Weather Map
  • Weather Widgets
  • user-avatar
    Login

    Hourly Weather Gyor

    Today, 31 March, Tuesday

    Time Temperature Precipitation Wind Pressure Humidity
    00:00 -2°C° 0 mm 2 mps 758 mmHg 52%
    01:00 -2°C° 0 mm 2 mps 758 mmHg 51%
    02:00 -1°C° 0 mm 1 mps 758 mmHg 52%
    03:00 -1°C° 0 mm 1 mps 758 mmHg 53%
    04:00 -2°C° 0 mm 0 mps 758 mmHg 55%
    05:00 0°C° 0 mm 1 mps 758 mmHg 52%
    06:00 +1°C° 0 mm 1 mps 759 mmHg 48%
    07:00 +1°C° 0 mm 1 mps 759 mmHg 45%
    08:00 +2°C° 0 mm 2 mps 759 mmHg 41%
    09:00 +3°C° 0 mm 2 mps 759 mmHg 37%
    10:00 +4°C° 0 mm 3 mps 759 mmHg 33%
    11:00 +4°C° 0 mm 3 mps 759 mmHg 32%
    12:00 +5°C° 0 mm 3 mps 758 mmHg 32%
    13:00 +7°C° 0 mm 3 mps 758 mmHg 32%
    14:00 +7°C° 0 mm 3 mps 758 mmHg 32%
    15:00 +7°C° 0 mm 3 mps 757 mmHg 33%
    16:00 +7°C° 0 mm 2 mps 757 mmHg 34%
    17:00 +5°C° 0 mm 2 mps 757 mmHg 38%
    18:00 +5°C° 0 mm 1 mps 757 mmHg 42%
    19:00 +3°C° 0 mm 1 mps 758 mmHg 46%
    20:00 +3°C° 0 mm 1 mps 758 mmHg 48%
    21:00 +2°C° 0 mm 1 mps 758 mmHg 49%
    22:00 +2°C° 0 mm 1 mps 758 mmHg 51%
    23:00 +1°C° 0 mm 1 mps 758 mmHg 54%

    Tomorrow, 1 April, Wednesday

    Time Temperature Precipitation Wind Pressure Humidity
    00:00 +1°C° 0 mm 1 mps 758 mmHg 56%
    01:00 +1°C° 0 mm 1 mps 758 mmHg 59%
    02:00 0°C° 0 mm 1 mps 758 mmHg 62%
    03:00 0°C° 0 mm 1 mps 758 mmHg 64%
    04:00 0°C° 0 mm 1 mps 757 mmHg 67%
    05:00 0°C° 0 mm 1 mps 757 mmHg 64%
    06:00 +1°C° 0 mm 1 mps 757 mmHg 62%
    07:00 +2°C° 0 mm 1 mps 757 mmHg 59%
    08:00 +4°C° 0 mm 1 mps 757 mmHg 53%
    09:00 +6°C° 0 mm 1 mps 757 mmHg 47%
    10:00 +7°C° 0 mm 1 mps 757 mmHg 42%
    11:00 +8°C° 0 mm 1 mps 756 mmHg 38%
    12:00 +9°C° 0 mm 1 mps 756 mmHg 35%
    13:00 +10°C° 0 mm 1 mps 755 mmHg 32%
    14:00 +10°C° 0 mm 1 mps 755 mmHg 31%
    15:00 +10°C° 0 mm 1 mps 754 mmHg 31%
    16:00 +9°C° 0 mm 1 mps 753 mmHg 30%
    17:00 +8°C° 0 mm 1 mps 753 mmHg 34%
    18:00 +6°C° 0 mm 1 mps 753 mmHg 38%
    19:00 +5°C° 0 mm 1 mps 753 mmHg 41%
    20:00 +3°C° 0 mm 2 mps 754 mmHg 42%
    21:00 +3°C° 0 mm 2 mps 754 mmHg 43%
    22:00 +2°C° 0 mm 2 mps 754 mmHg 44%
    23:00 +2°C° 0 mm 2 mps 753 mmHg 45%

    Day after tomorrow, 2 April, Thursday

    Time Temperature Precipitation Wind Pressure Humidity
    00:00 +1°C° 0 mm 2 mps 753 mmHg 45%
    01:00 +1°C° 0 mm 2 mps 753 mmHg 45%
    02:00 -1°C° 0 mm 2 mps 753 mmHg 46%
    03:00 -1°C° 0 mm 2 mps 753 mmHg 47%
    04:00 -1°C° 0 mm 2 mps 752 mmHg 48%
    05:00 +1°C° 0 mm 2 mps 752 mmHg 46%
    06:00 +1°C° 0 mm 2 mps 752 mmHg 44%
    07:00 +2°C° 0 mm 2 mps 752 mmHg 42%
    08:00 +3°C° 0 mm 3 mps 752 mmHg 39%
    09:00 +5°C° 0 mm 3 mps 752 mmHg 36%
    10:00 +7°C° 0 mm 4 mps 752 mmHg 32%
    11:00 +8°C° 0 mm 4 mps 752 mmHg 32%
    12:00 +10°C° 0 mm 4 mps 751 mmHg 32%
    13:00 +11°C° 0 mm 3 mps 751 mmHg 31%
    14:00 +11°C° 0 mm 3 mps 750 mmHg 33%
    15:00 +11°C° 0 mm 3 mps 749 mmHg 34%
    16:00 +11°C° 0 mm 3 mps 749 mmHg 35%
    17:00 +9°C° 0 mm 3 mps 749 mmHg 40%
    18:00 +8°C° 0 mm 3 mps 749 mmHg 45%
    19:00 +5°C° 0 mm 3 mps 749 mmHg 50%
    20:00 +4°C° 0 mm 3 mps 749 mmHg 53%
    21:00 +4°C° 0 mm 3 mps 749 mmHg 55%
    22:00 +3°C° 0 mm 3 mps 749 mmHg 58%
    23:00 +3°C° 0 mm 3 mps 749 mmHg 63%

    3 April, Friday

    Time Temperature Precipitation Wind Pressure Humidity
    00:00 +3°C° 0 mm 3 mps 749 mmHg 69%
    01:00 +2°C° 0 mm 3 mps 749 mmHg 74%
    02:00 +2°C° 0 mm 3 mps 749 mmHg 77%
    03:00 +2°C° 0 mm 3 mps 749 mmHg 80%
    04:00 +1°C° 0 mm 3 mps 749 mmHg 83%
    05:00 +3°C° 0 mm 2 mps 749 mmHg 79%
    06:00 +4°C° 0 mm 2 mps 750 mmHg 76%
    07:00 +5°C° 0 mm 2 mps 750 mmHg 73%
    08:00 +7°C° 0 mm 3 mps 750 mmHg 65%
    09:00 +9°C° 0 mm 3 mps 750 mmHg 58%
    10:00 +11°C° 0 mm 4 mps 750 mmHg 50%
    11:00 +12°C° 0 mm 4 mps 751 mmHg 48%
    12:00 +12°C° 0 mm 5 mps 751 mmHg 46%
    13:00 +13°C° 0 mm 5 mps 751 mmHg 44%
    14:00 +13°C° 0 mm 5 mps 751 mmHg 45%
    15:00 +13°C° 0 mm 5 mps 751 mmHg 45%
    16:00 +13°C° 0 mm 4 mps 751 mmHg 45%
    17:00 +11°C° 0 mm 4 mps 751 mmHg 51%
    18:00 +10°C° 0 mm 3 mps 752 mmHg 57%
    19:00 +8°C° 0 mm 2 mps 752 mmHg 62%
    20:00 +8°C° 0 mm 2 mps 753 mmHg 64%
    21:00 +7°C° 0 mm 2 mps 753 mmHg 67%
    22:00 +6°C° 0 mm 2 mps 754 mmHg 69%
    23:00 +6°C° 0 mm 2 mps 754 mmHg 71%

    4 April, Saturday

    Time Temperature Precipitation Wind Pressure Humidity
    00:00 +6°C° 0 mm 2 mps 754 mmHg 73%
    01:00 +5°C° 0 mm 2 mps 755 mmHg 75%
    02:00 +5°C° 0 mm 2 mps 755 mmHg 75%
    03:00 +5°C° 0 mm 2 mps 755 mmHg 76%
    04:00 +5°C° 0 mm 2 mps 755 mmHg 77%
    05:00 +5°C° 0 mm 2 mps 756 mmHg 75%
    06:00 +7°C° 0 mm 1 mps 756 mmHg 74%
    07:00 +7°C° 0 mm 1 mps 757 mmHg 73%
    08:00 +8°C° 0 mm 2 mps 757 mmHg 66%
    09:00 +10°C° 0 mm 2 mps 757 mmHg 60%
    10:00 +12°C° 0 mm 3 mps 757 mmHg 54%
    11:00 +12°C° 0 mm 3 mps 757 mmHg 50%
    12:00 +13°C° 0 mm 3 mps 758 mmHg 47%
    13:00 +14°C° 0 mm 3 mps 758 mmHg 44%
    14:00 +14°C° 0 mm 3 mps 757 mmHg 44%
    15:00 +15°C° 0 mm 2 mps 757 mmHg 44%
    16:00 +15°C° 0 mm 2 mps 757 mmHg 44%
    17:00 +13°C° 0 mm 2 mps 758 mmHg 50%
    18:00 +12°C° 0 mm 2 mps 758 mmHg 55%
    19:00 +9°C° 0 mm 2 mps 758 mmHg 61%
    20:00 +8°C° 0 mm 2 mps 759 mmHg 63%
    21:00 +9°C° 0 mm 1 mps 759 mmHg 65%
    22:00 +8°C° 0 mm 1 mps 760 mmHg 67%
    23:00 +8°C° 0 mm 1 mps 760 mmHg 68%

    5 April, Sunday

    Time Temperature Precipitation Wind Pressure Humidity
    00:00 +7°C° 0 mm 1 mps 760 mmHg 70%
    01:00 +7°C° 0 mm 1 mps 760 mmHg 72%
    02:00 +6°C° 0 mm 2 mps 761 mmHg 73%
    03:00 +5°C° 0 mm 2 mps 761 mmHg 75%
    04:00 +5°C° 0 mm 2 mps 761 mmHg 76%
    05:00 +6°C° 0 mm 2 mps 761 mmHg 73%
    06:00 +7°C° 0 mm 3 mps 761 mmHg 71%
    07:00 +7°C° 0 mm 3 mps 761 mmHg 68%
    08:00 +8°C° 0 mm 4 mps 761 mmHg 61%
    09:00 +11°C° 0 mm 4 mps 761 mmHg 54%
    10:00 +13°C° 0 mm 5 mps 761 mmHg 47%
    11:00 +14°C° 0 mm 5 mps 761 mmHg 45%
    12:00 +15°C° 0 mm 4 mps 761 mmHg 44%
    13:00 +17°C° 0 mm 4 mps 760 mmHg 42%
    14:00 +17°C° 0 mm 4 mps 760 mmHg 44%
    15:00 +17°C° 0 mm 4 mps 760 mmHg 45%
    16:00 +17°C° 0 mm 4 mps 759 mmHg 46%
    17:00 +14°C° 0 mm 4 mps 759 mmHg 53%
    18:00 +13°C° 0 mm 3 mps 759 mmHg 59%
    19:00 +11°C° 0 mm 3 mps 759 mmHg 65%
    20:00 +10°C° 0 mm 3 mps 760 mmHg 67%
    21:00 +10°C° 0 mm 3 mps 760 mmHg 68%
    22:00 +9°C° 0 mm 3 mps 760 mmHg 69%
    23:00 +9°C° 0 mm 3 mps 760 mmHg 70%
    Show more